Погода в Кургане

Погода в Кургане : погода сейчас, прогноз погоды и архив. Всё, что Вы хотите узнать о погоде в Кургане!

Хотите узнать прогноз погоды в Кургане? Тогда Вам сюда: Погода в Кургане

Поиск расширенной информации на нашем сайте:

Другие новости

Новости СМИ2

Главная страница сайта

Новости сайта

02.10.2013

Напоминаем, что на нашем новом сайте вы можете получить высокодетализированные прогнозы погоды по пунктам России, СНГ и мира (включающие важные для авиации метеовеличины, такие как направление и скорость ветра, видимость, явления погоды, количество и форма облачности, нижняя и верхняя граница облачности), а также ознакомиться с разнообразными материалами по авиационной метеорологии и подборкой полезных ссылок на эту тему.

Сайт Метеоцентр.Азия посвящён разработке технологий оптимизации авиаметеорологического обслуживания, включая проектирование и перспективное создание нескольких автоматизированных авиаметеорологических систем:
- система выпуска высокодетальных прогностических карт явлений погоды для нижнего воздушного пространства по России и ближнему зарубежью;
- система верификации прогнозов TAF (выпускаемых синоптиками официальных АМСГ РФ и ближнего зарубежья) и AUTOTAF (выпускаемых сайтом Метеоцентр.Азия) - выявление ошибок, онлайн-сопоставление с фактической погодой METAR, автоматическое внесение коррективов в прогнозы при резком отклонении фактической погоды от прогноза, подсчёт оправдываемости прогнозов по элементам и в целом;
- система обработки, анализа и отображения авиаметеорологической информации для применения провайдерами метеорологической информации.

Рекомендуем: Магазины yves rocher

Погода в Кургане - сегодня

Время (UTC), дата Ветер
(°,м/с) 
Видим.   Явления Облачность Т
(°С)
Тd
(°С)
f(%) Тe
(°С)
Pmin
(гПа)
dP
(гПа)
Po
(мм)
O2
(г/м3)
Тmin Tmax R s Состояние
почвы
06 18.02.17 200 (Ю) 4000 м  слаб. снег  10/5 300 м средняя 
[Sc|Ac und]
-19.5 -22.2 79 -24  1021.7  -0.7  759  331           
09 18.02.17 200 (Ю) 20000 м  {снег}  3/0 средняя 
[Ac trans]
-15.5 -19.9 69 -19  1020.1  -1.4  758  325           
12 18.02.17 200 (Ю) 20000 м  {снег}  3/0 средняя 
[Ac trans]
-14.3 -18.1 73 -18  1017.9  -2.1  756  323           
15 18.02.17 180 (Ю) 10 км    3/0 верхняя 
[Ci fib]
-18.1 -20.4 82 -18  1017.2  -0.9  755  328    -13  0.0     
18 18.02.17 190 (Ю) 10 км    ясно 
-19.8 -22.2 81 -23  1015.6  -1.6  754  329           
21 18.02.17 170 (Ю) 10 км    ясно 
-21.3 -23.8 80 -22  1013.9  -1.7  753  331           
00 19.02.17 180 (Ю) 10 км    ясно 
-22.3 -25 79 -23  1012.1  -1.8  752  331           
03 19.02.17 180 (Ю) 10 км    10/0 верхняя 
[Ci sp]
-21.9 -24.6 79 -22  1010  -2.1  750  330  -22.5      51  равномерный
сухой снег
100% 
06 19.02.17 200 (Ю) 20000 м    8/0 средняя, верхняя 
[Ac trans|Ci fib]
-16 -19.6 74 -20  1007.9  -1.9  749  322           
09 19.02.17 190 (Ю) 6-12{12}  10 км  позёмок{снег}  10/0 средняя, верхняя 
[Ac trans|Ci fib]
-12.3 -16.3 72 -18  1005.7  -2  747  317           
12 19.02.17 190 (Ю) 4{12}  10 км  позёмок{снег}  10/5 1000 м средняя 
[Sc|Ac und]
-10.7 -14.2 75 -15  1002.5  -3.2  745  314           
15 19.02.17 190 (Ю) 3{11}  4000 м  слаб. снег  10/5 300 м средняя 
[Sc|Ac und]
-9.8 -11.7 86 -13  1000.3  -2.1  743  312    -9.8  0.4     
18 19.02.17 210 (ЮЗ) 10 км  в посл. час снег  10/3 600 м средняя 
[Sc|Ac und]
-8.7 -10.3 88 -10  1000  -0.3  743  310           
21 19.02.17 250 (З) 10 км    6/0 средняя, верхняя 
[Ac trans|Ci fib]
-9.4 -11.5 85 -12  1002.7  2.7  745  312           
00 20.02.17 270 (З) 10 км    4/0 средняя 
[Ac trans]
-7.7 -12.1 71 -11  1006.5  3.8  748  311           
03 20.02.17 240 (ЮЗ) 20000 м    4/0 средняя 
[Ac trans]
-9.5 -15.3 63 -11  1010.8  4.1  751  315  -10.9    52  равномерный
сухой снег
100% 
06 20.02.17 190 (Ю) 20000 м    10/0 средняя, верхняя 
[Ac trans|Ci]
-9.1 -14.7 64 -11  1012.3  1.5  752  315  -12         
09 20.02.17 190 (Ю) 20000 м    10/6 1000 м средняя 
[Sc|Ac und]
-6.2 -12.9 59 -9  1010.3  -1.8  751  311           
12 20.02.17 180 (Ю) 4000 м  слаб. снег  10/6 600 м средняя 
[Sc|As op]
-6.3 -7.8 89 -9  1006.1  -4.2  747  309           
15 20.02.17 190 (Ю) 4{10}  4000 м  слаб. снег  10/6 600 м средняя 
[Sc|As op]
-3.4 -4.6 91 -6  1003.6  -2.4  746  305    -3.4     
18 20.02.17 190 (Ю) 4000 м  слаб. снег  10/6 600 м средняя 
[Sc|As op]
-2.1 -3 94 -4  1002.4  -1.1  745  303           
21 20.02.17 200 (Ю) 10 км  {снег}  8/6 600 м средняя 
[Sc|Ac trans]
-2.9 -4.4 89 -5  1001.8  -0.6  744  304           
00 21.02.17 180 (Ю) 10 км  {снег}  8/8 600 м 
[Sc]
-1.8 -4.5 82 -4  1001.3  -0.5  744  302           
03 21.02.17 190 (Ю) 10 км    10/8 600 м средняя 
[Sc|Ac und]
-2.2 -4.7 83 -4  1001.9  0.6  744  303  -3.5    53  равномерный
мокрый или
старый снег
100% 
06 21.02.17 200 (Ю) 20000 м    4/0 верхняя 
[Ci fib]
+0.7 -3.7 72 -2  1002.7  0.9  745  300           
Время (UTC), дата Ветер
(°,м/с) 
Видим.   Явления Облачность Т
(°С)
Тd
(°С)
f(%) Тe
(°С)
Pmin
(гПа)
dP
(гПа)
Po
(мм)
O2
(г/м3)
Тmin Tmax R s Состояние
почвы

Для получения пояснительной информации подведите курсор к названию столбца.

ПОГОДА в Кургане - архив

Всё, что Вы хотите узнать о погоде в Кургане - удобно и подробно!

Выберите нужную дату (начиная с 1 января 2015* года) и нажмите кнопку "Найти".
Будут отображены архивные сводки погоды по пункту Курган, начиная с указанной даты.


Отображать данные в формате CSV (для использования в таблицах Excel)


Внимание! Наш архив погоды предназначен исключительно для личного некоммерческого использования в познавательных целях. Если Вам необходимы официальные справки о состоянии погоды (для производственных, юридических, коммерческих и т.п. целей), обращайтесь в органы Росгидромета.

*Примечание: данная дата относится к архиву по метеостанциям СССР (Россия, СНГ, Балтия).
Архив по метеостанциям Зарубежной Европы и Азии (кроме Китая) хранится 10 дней, по другим регионам земного шара (Китай, Африка, Америка, Австралия, Океания) - 1 день.

Курган - район местоположения метеостанции


Название, широта, долгота, высота метеостанции:
Курган 55.5°ш. 65.4°д. 74 м над ур. моря [Российская Федерация]

Дополнительная информация

В oтличие oт бoльшинства пoгoдных сайтoв мы публикуем пoдрoбную метеoинфoрмацию в детальнoм прoфессиoнальнoм фoрмате.

Характеристики температуры и влажнoсти вoздуха измеряются на высoте 2 м в тени вдали oт зданий и деревьев.
Скoрoсть ветра измеряется на высoте 10 м (на урoвне рoста челoвека скoрoсть ветра ниже в 1.5-2 раза). Если метеoстанция нахoдится в гoрoде или в лесу, тo скoрoсть ветра занижена на 2-4 м/с пo сравнению с oткрытым местoм. Скoрoсть ветра над акватoриями крупных рек и oзёр, а также на вершинах хoлмoв на 2-5 м/с выше, чем в oбычных услoвиях.
Атмoсфернoе давление в разных тoчках местнoсти мoжет значительнo oтличаться oт давления на метеoстанции, в зависимoсти oт услoвий рельефа (при пoдъёме на 10 м давление пoнижается примернo на 1 мм рт.ст.).